Location: Lakeview Terrace
(41.4931°N, 81.7101°W)
Time: 20:50:02
(UTC+00:00)

Meteor 2-16 Rocket - Pass Details

Date: 29 October 2020
Orbit: 942 x 956 km, 82.6° (Epoch: 02 December)

Event Time Altitude Azimuth Distance (km) Brightness Sun altitude
Rises 23:09:47 0° 351° (N) 3,616 7.5 -9.0°
Reaches altitude 10° 23:12:16 10° 352° (N) 2,668 6.8 -9.4°
Maximum altitude 23:18:23 89° 267° (W) 950 4.5 -10.6°
Drops below altitude 10° 23:24:29 10° 175° (S) 2,657 6.8 -11.7°
Sets 23:26:57 0° 175° (S) 3,600 7.5 -12.2°
